H1 CPF 2 NER 2021 10 5 9 278 01 glonass138 H2 1805301 9138 43508 2021 10 5 0 0 0 2021 10 8 23 45 0 900 1 1 0 0 0 1 H9 10 0 59492 0.00000 0 -11605731.633 22726823.457 -437237.126 10 0 59492 900.00000 0 -11395109.771 22668359.595 2776307.771 10 0 59492 1800.00000 0 -11044861.960 22230355.437 5936009.675 10 0 59492 2700.00000 0 -10610707.996 21404753.719 8980592.004 10 0 59492 3600.00000 0 -10149818.126 20196766.410 11851010.479 10 0 59492 4500.00000 0 -9718208.677 18624815.571 14491594.036 10 0 59492 5400.00000 0 -9368198.277 16719937.277 16851120.392 10 0 59492 6300.00000 0 -9146031.923 14524672.688 18883805.769 10 0 59492 7200.00000 0 -9089773.018 12091491.689 20550189.951 10 0 59492 8100.00000 0 -9227552.238 9480813.787 21817899.986 10 0 59492 9000.00000 0 -9576247.204 6758707.492 22662278.151 10 0 59492 9900.00000 0 -10140648.951 3994362.827 23066862.239 10 0 59492 10800.00000 0 -10913150.966 1257440.781 23023709.033 10 0 59492 11700.00000 0 -11873974.837 -1384591.285 22533554.567 10 0 59492 12600.00000 0 -12991924.166 -3869028.535 21605807.699 10 0 59492 13500.00000 0 -14225636.415 -6140296.010 20258376.543 10 0 59492 14400.00000 0 -15525281.367 -8152016.706 18517330.299 10 0 59492 15300.00000 0 -16834636.033 -9868694.778 16416402.124 10 0 59492 16200.00000 0 -18093449.710 -11266944.129 13996341.773 10 0 59492 17100.00000 0 -19240000.357 -12336211.450 11304129.645 10 0 59492 18000.00000 0 -20213734.820 -13078963.701 8392066.938 10 0 59492 18900.00000 0 -20957881.528 -13510332.639 5316759.156 10 0 59492 19800.00000 0 -21421924.887 -13657231.827 2138012.693 10 0 59492 20700.00000 0 -21563836.095 -13556983.967 -1082333.648 10 0 59492 21600.00000 0 -21351965.143 -13255517.357 -4281618.864 10 0 59492 22500.00000 0 -20766512.975 -12805208.677 -7397587.297 10 0 59492 23400.00000 0 -19800520.551 -12262464.457 -10369608.471 10 0 59492 24300.00000 0 -18460332.124 -11685144.758 -13139864.541 10 0 59492 25200.00000 0 -16765512.424 -11129939.257 -15654481.318 10 0 59492 26100.00000 0 -14748220.700 -10649807.754 -17864580.105 10 0 59492 27000.00000 0 -12452067.604 -10291594.183 -19727229.533 10 0 59492 27900.00000 0 -9930502.655 -10093915.487 -21206278.839 10 0 59492 28800.00000 0 -7244799.791 -10085414.789 -22273056.581 10 0 59492 29700.00000 0 -4461725.066 -10283452.517 -22906921.790 10 0 59492 30600.00000 0 -1650983.616 -10693290.458 -23095657.541 10 0 59492 31500.00000 0 1117448.025 -11307802.737 -22835700.070 10 0 59492 32400.00000 0 3775993.852 -12107725.461 -22132199.822 10 0 59492 33300.00000 0 6262044.291 -13062434.163 -20998913.871 10 0 59492 34200.00000 0 8520310.378 -14131216.057 -19457932.367 10 0 59492 35100.00000 0 10504869.709 -15264983.465 -17539244.659 10 0 59492 36000.00000 0 12180820.487 -16408356.401 -15280153.630 10 0 59492 36900.00000 0 13525476.374 -17502026.834 -12724549.685 10 0 59492 37800.00000 0 14529053.989 -18485305.461 -9922058.300 10 0 59492 38700.00000 0 15194826.036 -19298744.126 -6927077.524 10 0 59492 39600.00000 0 15538735.144 -19886723.768 -3797723.922 10 0 59492 40500.00000 0 15588486.077 -20199899.257 -594707.252 10 0 59492 41400.00000 0 15382155.638 -20197398.282 2619844.493 10 0 59492 42300.00000 0 14966379.628 -19848681.779 5783586.899 10 0 59492 43200.00000 0 14394193.905 -19134987.449 8835164.643 10 0 59492 44100.00000 0 13722620.923 -18050295.299 11715397.487 10 0 59492 45000.00000 0 13010103.623 -16601774.140 14368423.822 10 0 59492 45900.00000 0 12313894.883 -14809689.540 16742779.944 10 0 59492 46800.00000 0 11687512.349 -12706776.109 18792394.461 10 0 59492 47700.00000 0 11178365.700 -10337099.303 20477478.916 10 0 59492 48600.00000 0 10825656.045 -7754452.982 21765297.836 10 0 59492 49500.00000 0 10658635.733 -5020358.126 22630803.691 10 0 59492 50400.00000 0 10695301.857 -2201744.697 23057124.692 10 0 59492 51300.00000 0 10941578.606 631588.390 23035896.151 10 0 59492 52200.00000 0 11391023.369 3409630.983 22567428.857 10 0 59492 53100.00000 0 12025069.633 6064827.792 21660710.847 10 0 59492 54000.00000 0 12813797.392 8534643.172 20333241.956 10 0 59492 54900.00000 0 13717199.646 10763918.782 18610703.556 10 0 59492 55800.00000 0 14686892.703 12706926.534 16526468.961 10 0 59492 56700.00000 0 15668199.139 14329031.782 14120963.078 10 0 59492 57600.00000 0 16602516.281 15607897.567 11440882.827 10 0 59492 58500.00000 0 17429870.621 16534179.773 8538292.880 10 0 59492 59400.00000 0 18091550.300 17111684.327 5469613.864 10 0 59492 60300.00000 0 18532704.017 17356980.170 2294522.652 10 0 59492 61200.00000 0 18704795.760 17298484.755 -925213.504 10 0 59492 62100.00000 0 18567810.533 16975061.296 -4126945.698 10 0 59492 63000.00000 0 18092116.666 16434187.845 -7248370.607 10 0 59492 63900.00000 0 17259904.740 15729776.519 -10228751.238 10 0 59492 64800.00000 0 16066141.236 14919736.196 -13010106.468 10 0 59492 65700.00000 0 14518995.587 14063382.795 -15538345.300 10 0 59492 66600.00000 0 12639721.891 13218807.650 -17764323.027 10 0 59492 67500.00000 0 10461999.584 12440315.958 -19644798.371 10 0 59492 68400.00000 0 8030760.330 11776044.035 -21143272.914 10 0 59492 69300.00000 0 5400549.990 11265856.129 -22230696.702 10 0 59492 70200.00000 0 2633493.947 10939609.393 -22886026.844 10 0 59492 71100.00000 0 -203049.647 10815859.704 -23096628.947 10 0 59492 72000.00000 0 -3039051.102 10901062.239 -22858514.360 10 0 59492 72900.00000 0 -5804478.908 11189299.701 -22176409.443 10 0 59492 73800.00000 0 -8431967.616 11662548.878 -21063656.172 10 0 59492 74700.00000 0 -10859373.804 12291473.610 -19541946.584 10 0 59492 75600.00000 0 -13032115.062 13036710.241 -17640896.559 10 0 59492 76500.00000 0 -14905195.996 13850591.076 -15397467.366 10 0 59492 77400.00000 0 -16444838.277 14679233.071 -12855246.216 10 0 59492 78300.00000 0 -17629648.334 15464903.761 -10063599.678 10 0 59492 79200.00000 0 -18451275.443 16148564.832 -7076716.165 10 0 59492 80100.00000 0 -18914534.144 16672486.255 -3952555.926 10 0 59492 81000.00000 0 -19036987.223 16982820.960 -751728.722 10 0 59492 81900.00000 0 -18848007.931 17032031.576 2463679.222 10 0 59492 82800.00000 0 -18387361.797 16781066.941 5631306.261 10 0 59492 83700.00000 0 -17703368.384 16201196.529 8689721.209 10 0 59492 84600.00000 0 -16850720.852 15275425.182 11579610.826 10 0 59492 85500.00000 0 -15888055.314 13999428.128 14244925.976 10 0 59493 0.00000 0 -14875372.426 12381966.378 16633964.333 10 0 59493 900.00000 0 -13871419.029 10444763.120 18700370.239 10 0 59493 1800.00000 0 -12931141.046 8221847.383 20404029.535 10 0 59493 2700.00000 0 -12103312.613 5758388.085 21711846.777 10 0 59493 3600.00000 0 -11428442.072 3109067.705 22598386.882 10 0 59493 4500.00000 0 -10937042.010 336060.969 23046370.401 10 0 59493 5400.00000 0 -10648335.981 -2493298.786 23047012.708 10 0 59493 6300.00000 0 -10569456.267 -5309070.120 22600200.459 10 0 59493 7200.00000 0 -10695166.657 -8041366.145 21714501.529 10 0 59493 8100.00000 0 -11008122.361 -10623019.891 20407007.680 10 0 59493 9000.00000 0 -11479656.694 -12992142.530 18703012.173 10 0 59493 9900.00000 0 -12071062.138 -15094468.592 16635527.730 10 0 59493 10800.00000 0 -12735312.423 -16885390.939 14244653.210 10 0 59493 11700.00000 0 -13419153.540 -18331600.836 11576800.442 10 0 59493 12600.00000 0 -14065475.695 -19412264.592 8683795.581 10 0 59493 13500.00000 0 -14615865.952 -20119687.618 5621872.061 10 0 59493 14400.00000 0 -15013233.272 -20459438.121 2450574.633 10 0 59493 15300.00000 0 -15204394.178 -20449925.473 -768403.846 10 0 59493 16200.00000 0 -15142508.623 -20121451.429 -3972429.620 10 0 59493 17100.00000 0 -14789261.784 -19514774.847 -7099154.945 10 0 59493 18000.00000 0 -14116698.192 -18679251.268 -10087739.698 10 0 59493 18900.00000 0 -13108629.364 -17670626.907 -12880042.944 10 0 59493 19800.00000 0 -11761554.293 -16548581.196 -15421760.369 10 0 59493 20700.00000 0 -10085052.975 -15374122.665 -17663484.637 10 0 59493 21600.00000 0 -8101635.537 -14206948.851 -19561667.725 10 0 59493 22500.00000 0 -5846052.652 -13102882.169 -21079466.384 10 0 59493 23400.00000 0 -3364095.678 -12111490.067 -22187454.522 10 0 59493 24300.00000 0 -710936.351 -11273989.555 -22864189.167 10 0 59493 25200.00000 0 2050925.044 -10621523.860 -23096619.730 10 0 59493 26100.00000 0 4854017.763 -10173882.906 -22880333.369 10 0 59493 27000.00000 0 7628467.275 -9938720.459 -22219632.509 10 0 59493 27900.00000 0 10304664.384 -9911299.759 -21127443.675 10 0 59493 28800.00000 0 12815926.493 -10074777.226 -19625059.977 10 0 59493 29700.00000 0 15101041.322 -10401011.320 -17741722.582 10 0 59493 30600.00000 0 17106588.400 -10851861.672 -15514049.465 10 0 59493 31500.00000 0 18788942.787 -11380923.147 -12985322.563 10 0 59493 32400.00000 0 20115878.879 -11935621.363 -10204647.051 10 0 59493 33300.00000 0 21067708.677 -12459581.087 -7225998.848 10 0 59493 34200.00000 0 21637908.206 -12895167.527 -4107178.713 10 0 59493 35100.00000 0 21833207.114 -13186093.280 -908693.002 10 0 59493 36000.00000 0 21673138.790 -13279980.918 2307417.351 10 0 59493 36900.00000 0 21189070.759 -13130773.064 5478776.986 10 0 59493 37800.00000 0 20422756.836 -12700888.132 8543882.231 10 0 59493 38700.00000 0 19424472.325 -11963030.552 11443289.991 10 0 59493 39600.00000 0 18250810.926 -10901578.760 14120766.410 10 0 59493 40500.00000 0 16962235.979 -9513491.837 16524373.372 10 0 59493 41400.00000 0 15620488.765 -7808695.735 18607472.122 10 0 59493 42300.00000 0 14285962.426 -5809931.720 20329624.866 10 0 59493 43200.00000 0 13015151.268 -3552071.936 21657377.390 10 0 59493 44100.00000 0 11858282.013 -1080929.071 22564907.891 10 0 59493 45000.00000 0 10857225.857 1548391.863 23034529.701 10 0 59493 45900.00000 0 10043778.478 4273532.729 23057038.357 10 0 59493 46800.00000 0 9438379.829 7027229.300 22631896.153 10 0 59493 47700.00000 0 9049327.291 9739869.964 21767250.271 10 0 59493 48600.00000 0 8872515.285 12342161.075 20479783.581 10 0 59493 49500.00000 0 8891712.402 14767789.187 18794400.183 10 0 59493 50400.00000 0 9079364.753 16955970.025 16743750.929 10 0 59493 51300.00000 0 9397891.990 18853778.518 14367607.166 10 0 59493 52200.00000 0 9801421.767 20418162.808 11712093.965 10 0 59493 53100.00000 0 10237889.483 21617558.014 8828797.125 10 0 59493 54000.00000 0 10651414.433 22433032.158 5773760.870 10 0 59493 54900.00000 0 10984851.557 22858916.016 2606395.640 10 0 59493 55800.00000 0 11182410.069 22902890.393 -611682.417 10 0 59493 56700.00000 0 11192227.134 22585527.299 -3817857.107 10 0 59493 57600.00000 0 10968786.411 21939304.690 -6949738.695 10 0 59493 58500.00000 0 10475077.768 21007136.876 -9946386.339 10 0 59493 59400.00000 0 9684405.451 19840483.343 -12749501.625 10 0 59493 60300.00000 0 8581766.934 18497116.624 -15304569.123 10 0 59493 61200.00000 0 7164743.148 17038644.256 -17561920.964 10 0 59493 62100.00000 0 5443861.517 15527890.084 -19477704.328 10 0 59493 63000.00000 0 3442415.711 14026245.766 -21014732.973 10 0 59493 63900.00000 0 1195749.073 12591104.297 -22143206.363 10 0 59493 64800.00000 0 -1249968.803 11273483.386 -22841282.995 10 0 59493 65700.00000 0 -3839421.663 10115938.096 -23095497.436 10 0 59493 66600.00000 0 -6510212.583 9150849.633 -22901013.740 10 0 59493 67500.00000 0 -9195230.758 8399161.021 -22261711.146 10 0 59493 68400.00000 0 -11825221.069 7869611.397 -21190101.079 10 0 59493 69300.00000 0 -14331450.137 7558499.712 -19707077.612 10 0 59493 70200.00000 0 -16648358.688 7449986.372 -17841506.644 10 0 59493 71100.00000 0 -18716090.817 7516918.846 -15629661.871 10 0 59493 72000.00000 0 -20482795.723 7722145.446 -13114518.598 10 0 59493 72900.00000 0 -21906607.092 8020261.098 -10344918.943 10 0 59493 73800.00000 0 -22957218.617 8359710.892 -7374624.431 10 0 59493 74700.00000 0 -23616990.858 8685162.300 -4261274.242 10 0 59493 75600.00000 0 -23881544.192 8940045.676 -1065269.092 10 0 59493 76500.00000 0 -23759813.933 9069155.632 2151397.764 10 0 59493 77400.00000 0 -23273566.074 9021203.340 5326339.768 10 0 59493 78300.00000 0 -22456394.610 8751211.865 8397983.427 10 0 59493 79200.00000 0 -21352242.941 8222653.175 11306758.558 10 0 59493 80100.00000 0 -20013511.659 7409236.361 13996249.426 10 0 59493 81000.00000 0 -18498832.168 6296271.139 16414284.780 10 0 59493 81900.00000 0 -16870599.316 4881548.410 18513945.966 10 0 59493 82800.00000 0 -15192366.216 3175699.839 20254473.952 10 0 59493 83700.00000 0 -13526209.889 1202020.032 21602058.132 10 0 59493 84600.00000 0 -11930177.467 -1004242.873 22530492.029 10 0 59493 85500.00000 0 -10455919.266 -3397100.206 23021683.457 10 0 59494 0.00000 0 -9146607.273 -5921490.371 23066009.419 10 0 59494 900.00000 0 -8035224.921 -8515334.768 22662508.727 10 0 59494 1800.00000 0 -7143301.101 -11111894.592 21818908.302 10 0 59494 2700.00000 0 -6480138.756 -13642336.500 20551482.159 10 0 59494 3600.00000 0 -6042572.084 -16038398.128 18884744.874 10 0 59494 4500.00000 0 -5815261.758 -18235044.601 16850984.671 10 0 59494 5400.00000 0 -5771515.905 -20173005.620 14489644.248 10 0 59494 6300.00000 0 -5874602.280 -21801087.419 11846560.450 10 0 59494 7200.00000 0 -6079496.241 -23078162.811 8973076.952 10 0 59494 8100.00000 0 -6334990.495 -23974755.769 5925046.746 10 0 59494 9000.00000 0 -6586076.930 -24474153.740 2761743.726 10 0 59494 9900.00000 0 -6776499.061 -24573000.634 -455295.105 10 0 59494 10800.00000 0 -6851366.021 -24281345.373 -3663473.715 10 0 59494 11700.00000 0 -6759716.212 -23622143.956 -6800363.165 10 0 59494 12600.00000 0 -6456920.708 -22630236.269 -9804924.818 10 0 59494 13500.00000 0 -5906823.312 -21350841.242 -12618705.835 10 0 59494 14400.00000 0 -5083525.358 -19837634.407 -15186982.793 10 0 59494 15300.00000 0 -3972738.664 -18150489.615 -17459830.381 10 0 59494 16200.00000 0 -2572648.462 -16352980.711 -19393093.957 10 0 59494 17100.00000 0 -894249.025 -14509748.825 -20949247.014 10 0 59494 18000.00000 0 1038862.796 -12683846.306 -22098116.978 10 0 59494 18900.00000 0 3191228.075 -10934168.807 -22817465.803 10 0 59494 19800.00000 0 5516769.867 -9313082.859 -23093414.738 10 0 59494 20700.00000 0 7960489.188 -7864347.675 -22920705.786 10 0 59494 21600.00000 0 10460542.610 -6621417.139 -22302795.591 10 0 59494 22500.00000 0 12950615.357 -5606191.704 -21251780.607 10 0 59494 23400.00000 0 15362491.493 -4828271.007 -19788155.586 10 0 59494 24300.00000 0 17628714.852 -4284736.835 -17940410.424 10 0 59494 25200.00000 0 19685230.577 -3960473.952 -15744473.373 10 0 59494 26100.00000 0 21473897.943 -3829013.870 -13243011.476 10 0 59494 27000.00000 0 22944770.515 -3853864.772 -10484601.698 10 0 59494 27900.00000 0 24058049.370 -3990270.566 -7522788.629 10 0 59494 28800.00000 0 24785628.527 -4187324.172 -4415046.919 10 0 59494 29700.00000 0 25112168.809 -4390345.335 -1221668.373 10 0 59494 30600.00000 0 25035655.865 -4543422.197 1995404.909 10 0 59494 31500.00000 0 24567419.576 -4592009.090 5173778.729 10 0 59494 32400.00000 0 23731614.511 -4485470.628 8251813.270 10 0 59494 33300.00000 0 22564183.500 -4179464.453 11169814.591 10 0 59494 34200.00000 0 21111347.930 -3638061.827 13871188.156 10 0 59494 35100.00000 0 19427687.980 -2835516.190 16303532.324 10 0 59494 36000.00000 0 17573892.960 -1757604.540 18419650.938 10 0 59494 36900.00000 0 15614275.584 -402484.333 20178465.738 10 0 59494 37800.00000 0 13614153.566 1218971.238 21545811.353 10 0 59494 38700.00000 0 11637207.353 3083375.105 22495097.884 10 0 59494 39600.00000 0 9742923.689 5155558.468 23007828.465 10 0 59494 40500.00000 0 7984231.046 7389804.388 23073961.976 10 0 59494 41400.00000 0 6405424.916 9731533.241 22692113.757 10 0 59494 42300.00000 0 5040469.098 12119371.373 21869590.117 10 0 59494 43200.00000 0 3911743.399 14487518.409 20622255.426 10 0 59494 44100.00000 0 3029289.756 16768315.870 18974233.551 10 0 59494 45000.00000 0 2390588.092 18894910.903 16957448.576 10 0 59494 45900.00000 0 1980871.066 20803904.653 14611012.750 10 0 59494 46800.00000 0 1773964.253 22437874.868 11980472.646 10 0 59494 47700.00000 0 1733616.168 23747667.068 9116927.570 10 0 59494 48600.00000 0 1815261.623 24694357.974 6076036.865 10 0 59494 49500.00000 0 1968143.415 25250808.300 2916935.338 10 0 59494 50400.00000 0 2137701.835 25402739.095 -298921.772 10 0 59494 51300.00000 0 2268129.923 25149285.869 -3508961.247 10 0 59494 52200.00000 0 2304985.017 24503006.870 -6650717.557 10 0 59494 53100.00000 0 2197744.728 23489345.025 -9663056.783 10 0 59494 54000.00000 0 1902197.720 22145566.383 -12487374.023 10 0 59494 54900.00000 0 1382566.726 20519220.080 -15068740.041 10 0 59494 55800.00000 0 613272.847 18666185.229 -17356974.062 10 0 59494 56700.00000 0 -419734.502 16648387.418 -19307621.422 10 0 59494 57600.00000 0 -1718139.007 14531281.288 -20882816.962 10 0 59494 58500.00000 0 -3270946.243 12381205.231 -22052017.510 10 0 59494 59400.00000 0 -5054713.489 10262719.196 -22792589.726 10 0 59494 60300.00000 0 -7034311.446 8236036.793 -23090242.580 10 0 59494 61200.00000 0 -9164186.309 6354658.580 -22939296.787 10 0 59494 62100.00000 0 -11390069.799 4663304.486 -22342786.828 10 0 59494 63000.00000 0 -13651066.194 3196230.422 -21312394.238 10 0 59494 63900.00000 0 -15882029.623 1975997.971 -19868214.068 10 0 59494 64800.00000 0 -18016133.009 1012746.808 -18038359.415 10 0 59494 65700.00000 0 -19987522.123 303998.523 -15858411.890 10 0 59494 66600.00000 0 -21733944.525 -165001.650 -13370728.737 10 0 59494 67500.00000 0 -23199244.406 -420421.168 -10623619.953 10 0 59494 68400.00000 0 -24335619.715 -498492.280 -7670411.159 10 0 59494 69300.00000 0 -25105547.827 -443737.720 -4568410.285 10 0 59494 70200.00000 0 -25483299.769 -306845.680 -1377797.888 10 0 59494 71100.00000 0 -25455980.095 -142284.302 1839537.542 10 0 59494 72000.00000 0 -25024049.222 -5756.836 5021196.748 10 0 59494 72900.00000 0 -24201306.639 48394.805 8105476.278 10 0 59494 73800.00000 0 -23014335.787 -30271.804 11032561.211 10 0 59494 74700.00000 0 -21501433.882 -285927.074 13745681.014 10 0 59494 75600.00000 0 -19711071.304 -754362.903 16192206.422 10 0 59494 76500.00000 0 -17699944.654 -1461241.466 18324666.416 10 0 59494 77400.00000 0 -15530704.420 -2420773.622 20101665.923 10 0 59494 78300.00000 0 -13269451.528 -3634883.438 21488686.916 10 0 59494 79200.00000 0 -10983106.485 -5092895.066 22458757.788 10 0 59494 80100.00000 0 -8736760.089 -6771756.510 22992978.296 10 0 59494 81000.00000 0 -6591115.279 -8636792.510 23080890.051 10 0 59494 81900.00000 0 -4600125.895 -10642956.848 22720685.327 10 0 59494 82800.00000 0 -2808930.094 -12736533.433 21919249.776 10 0 59494 83700.00000 0 -1252163.918 -14857216.792 20692037.686 10 0 59494 84600.00000 0 47275.156 -16940486.570 19062781.418 10 0 59494 85500.00000 0 1078963.392 -18920177.913 17063039.763 10 0 59495 0.00000 0 1845154.286 -20731140.949 14731593.265 10 0 59495 900.00000 0 2360442.559 -22311879.412 12113696.050 10 0 59495 1800.00000 0 2650902.161 -23607055.420 9260201.235 10 0 59495 2700.00000 0 2752736.452 -24569758.292 6226572.308 10 0 59495 3600.00000 0 2710497.026 -25163439.020 3071802.636 10 0 59495 4500.00000 0 2574947.655 -25363429.353 -142736.762 10 0 59495 5400.00000 0 2400664.619 -25157980.626 -3354498.002 10 0 59495 6300.00000 0 2243476.177 -24548777.960 -6500981.526 10 0 59495 7200.00000 0 2157850.857 -23550907.688 -9520960.732 10 0 59495 8100.00000 0 2194346.561 -22192279.155 -12355681.266 10 0 59495 9000.00000 0 2397229.793 -20512525.257 -14950010.670 10 0 59495 9900.00000 0 2802366.930 -18561428.218 -17253515.220 10 0 59495 10800.00000 0 3435477.740 -16396937.133 -19221442.598 10 0 59495 11700.00000 0 4310825.761 -14082860.877 -20815591.147 10 0 59495 12600.00000 0 5430401.343 -11686333.462 -22005048.951 10 0 59495 13500.00000 0 6783632.294 -9275158.086 -22766788.891 10 0 59495 14400.00000 0 8347634.637 -6915140.729 -23086108.781 10 0 59495 15300.00000 0 10087993.210 -4667524.288 -22956908.787 10 0 59495 16200.00000 0 11960039.690 -2586629.452 -22381801.584 10 0 59495 17100.00000 0 13910574.837 -717799.543 -21372053.788 10 0 59495 18000.00000 0 15879963.205 904266.349 -19947360.403 10 0 59495 18900.00000 0 17804513.179 2256724.108 -18135457.039 10 0 59495 19800.00000 0 19619043.327 3329290.479 -15971577.616 10 0 59495 20700.00000 0 21259528.222 4124416.401 -13497768.156 10 0 59495 21600.00000 0 22665713.687 4656922.350 -10762069.873 10 0 59495 22500.00000 0 23783592.533 4953112.658 -7817587.213 10 0 59495 23400.00000 0 24567637.619 5049407.398 -4721458.818 10 0 59495 24300.00000 0 24982699.152 4990550.596 -1533751.136 10 0 59495 25200.00000 0 25005487.026 4827471.176 1683704.032 10 0 59495 26100.00000 0 24625576.288 4614887.452 4868505.550 10 0 59495 27000.00000 0 23845893.666 4408756.711 7958889.513 10 0 59495 27900.00000 0 22682664.708 4263677.845 10894923.103 10 0 59495 28800.00000 0 21164823.546 4230356.810 13619662.708 10 0 59495 29700.00000 0 19332909.637 4353242.076 16080254.128 10 0 59495 30600.00000 0 17237497.084 4668430.005 18228953.911 10 0 59495 31500.00000 0 14937221.540 5201928.779 20024052.305 10 0 59495 32400.00000 0 12496486.270 5968354.521 21430680.449 10 0 59495 33300.00000 0 9982942.078 6970115.266 22421486.516 10 0 59495 34200.00000 0 7464845.230 8197118.091 22977167.979 10 0 59495 35100.00000 0 5008402.348 9627013.029 23086849.875 10 0 59495 36000.00000 0 2675211.817 11225965.054 22748301.635 10 0 59495 36900.00000 0 519907.405 12949923.412 21967987.988 10 0 59495 37800.00000 0 -1411898.636 14746336.760 20760952.375 10 0 59495 38700.00000 0 -3085287.925 16556243.856 19150534.403 10 0 59495 39600.00000 0 -4477254.475 18316653.485 17167925.882 10 0 59495 40500.00000 0 -5577418.967 19963114.858 14851573.156 10 0 59495 41400.00000 0 -6388209.304 21432371.296 12246436.395 10 0 59495 42300.00000 0 -6924500.222 22664985.907 9403119.589 10 0 59495 43200.00000 0 -7212727.682 23607828.716 6376887.688 10 0 59495 44100.00000 0 -7289515.928 24216320.065 3226589.859 10 0 59495 45000.00000 0 -7199875.901 24456335.006 13510.126 10 0 59495 45900.00000 0 -6995052.136 24305687.552 -3199831.711 10 0 59495 46800.00000 0 -6730110.306 23755131.351 -6350904.723 10 0 59495 47700.00000 0 -6461368.799 22808833.784 -9378392.154 10 0 59495 48600.00000 0 -6243784.378 21484302.978 -12223392.528 10 0 59495 49500.00000 0 -6128403.895 19811770.432 -14830572.275 10 0 59495 50400.00000 0 -6159991.076 17833055.153 -17149246.606 10 0 59495 51300.00000 0 -6374929.734 15599957.125 -19134367.183 10 0 59495 52200.00000 0 -6799492.768 13172247.660 -20747397.262 10 0 59495 53100.00000 0 -7448550.550 10615341.114 -21957057.377 10 0 59495 54000.00000 0 -8324773.479 7997745.407 -22739927.607 10 0 59495 54900.00000 0 -9418362.439 5388397.760 -23080895.361 10 0 59495 55800.00000 0 -10707318.586 2853996.475 -22973440.744 10 0 59495 56700.00000 0 -12158241.150 456439.291 -22419754.808 10 0 59495 57600.00000 0 -13727619.902 -1749526.015 -21430689.083 10 0 59495 58500.00000 0 -15363568.171 -3718342.183 -20025537.984 10 0 59495 59400.00000 0 -17007924.058 -5415290.726 -18231658.705 10 0 59495 60300.00000 0 -18598632.121 -6817681.000 -16083936.192 10 0 59495 61200.00000 0 -20072306.090 -7915532.181 -13624103.635 10 0 59495 62100.00000 0 -21366865.685 -8711721.571 -10899931.598 10 0 59495 63000.00000 0 -22424137.399 -9221594.789 -7964301.274 10 0 59495 63900.00000 0 -23192310.558 -9472055.742 -4874179.777 10 0 59495 64800.00000 0 -23628145.973 -9500176.011 -1689517.063 10 0 59495 65700.00000 0 -23698844.673 -9351383.292 1527914.257 10 0 59495 66600.00000 0 -23383498.427 -9077305.981 4715713.788 10 0 59495 67500.00000 0 -22674061.106 -8733365.410 7812059.892 10 0 59495 68400.00000 0 -21575799.953 -8376217.647 10756904.650 10 0 59495 69300.00000 0 -20107207.461 -8061153.000 13493134.177 10 0 59495 70200.00000 0 -18299377.040 -7839563.008 15967672.086 10 0 59495 71100.00000 0 -16194867.854 -7756581.838 18132505.080 10 0 59495 72000.00000 0 -13846105.462 -7849001.576 19945611.075 10 0 59495 72900.00000 0 -11313384.027 -8143549.446 21371772.374 10 0 59495 73800.00000 0 -8662552.242 -8655599.903 22383258.513 10 0 59495 74700.00000 0 -5962478.287 -9388376.360 22960365.814 10 0 59495 75600.00000 0 -3282398.091 -10332677.033 23091803.379 10 0 59495 76500.00000 0 -689256.045 -11467137.553 22774917.976 10 0 59495 77400.00000 0 1754852.212 -12759020.633 22015753.125 10 0 59495 78300.00000 0 3995029.498 -14165501.115 20828940.734 10 0 59495 79200.00000 0 5985622.292 -15635393.876 19237426.564 10 0 59495 80100.00000 0 7691876.699 -17111253.367 17272034.004 10 0 59495 81000.00000 0 9091136.654 -18531757.638 14970873.638 10 0 59495 81900.00000 0 10173534.656 -19834277.398 12378609.169 10 0 59495 82800.00000 0 10942146.453 -20957522.325 9545593.282 10 0 59495 83700.00000 0 11412603.652 -21844153.129 6526889.784 10 0 59495 84600.00000 0 11612181.110 -22443248.845 3381200.881 10 0 59495 85500.00000 0 11578398.213 -22712524.520 169720.744 99